Wind_Speed
18 20 23 21 20 20 18 18 17 16 15 15 14 14 14 13 9 8 10 10 11 11 10 9 9 8 8 8 9 9 9 10 10
20 23 22 21 20 19 18 17 15 14 14 13 12 12 13 12 5 8 9 9 10 10 10 10 9 9 9 9 10 10 10 11 11
23 24 22 19 22 19 17 15 13 12 11 11 11 11 13 8 4 8 7 7 9 9 9 9 9 8 9 10 10 10 10 11 11
23 23 21 18 21 18 16 13 11 10 9 9 9 9 11 5 7 4 6 6 7 7 7 8 8 8 9 9 10 10 10 10 10
24 23 20 17 19 17 15 12 10 8 7 6 7 8 7 4 5 1 3 3 4 5 6 6 8 8 9 10 11 10 10 9 10
24 24 21 18 18 17 14 11 8 5 4 4 4 5 7 4 1 4 3 2 3 4 5 6 7 9 10 9 11 10 9 10 10
25 24 22 18 17 17 13 9 6 4 4 2 3 4 3 3 3 5 4 3 2 3 4 5 7 8 9 9 9 10 10 10 10
23 25 23 21 18 15 11 8 6 4 2 2 2 1 5 3 5 4 5 4 3 3 3 4 5 7 8 7 8 7 9 9 10
24 22 22 17 15 13 10 8 7 5 8 7 6 6 2 4 4 5 8 7 5 5 5 5 7 9 10 8 8 8 7 8 8
19 19 19 17 13 10 7 6 7 8 5 7 6 4 3 3 3 8 8 11 10 9 7 5 6 9 10 10 9 8 7 7 8
18 16 17 15 15 16 13 10 8 5 6 6 2 1 4 8 7 6 8 9 11 13 9 8 9 12 12 12 10 8 4 4 8
26 23 21 19 16 14 12 10 7 7 5 6 9 7 6 6 4 6 8 10 12 10 9 11 10 10 14 13 12 8 5 5 7
24 21 18 15 13 12 11 12 12 13 12 9 6 4 6 4 5 6 7 8 10 16 17 16 14 13 14 12 13 9 6 6 6
21 19 16 14 12 12 11 10 12 10 10 12 8 10 8 6 7 7 8 14 18 17 16 12 11 9 9 12 13 10 10 8 8
20 19 15 13 13 12 11 11 12 12 8 10 12 12 10 11 11 12 13 16 12 11 7 9 10 10 7 9 13 11 11 10 10
21 19 17 14 12 10 10 9 12 11 12 13 13 9 10 11 13 14 13 10 11 9 8 10 10 12 8 10 14 14 13 11 12
16 18 16 15 15 14 12 13 13 15 15 15 11 11 10 15 13 10 9 9 9 11 10 9 13 11 7 8 11 15 14 13 13
18 18 17 17 16 14 17 17 19 19 19 17 11 7 5 8 6 10 9 9 9 12 11 11 13 11 8 9 13 15 15 17 15
16 19 16 17 16 16 18 20 23 22 18 17 16 10 10 5 5 9 9 12 12 13 14 15 14 15 13 13 13 16 18 15 15
15 17 16 17 16 17 20 20 25 26 21 25 18 17 15 11 12 13 8 13 13 14 17 15 18 19 16 13 13 15 17 16 14
Wind_Direction
170 163 155 165 153 143 138 131 127 122 117 114 111 106 97 82 74 91 87 87 85 81 79 76 70 63 53 41 32 23 16 11 6
168 155 156 151 150 145 140 135 131 126 121 117 112 106 94 89 86 77 84 84 84 79 74 70 64 55 47 40 32 24 19 16 14
165 157 154 153 154 151 146 141 136 132 127 122 115 109 98 86 92 71 77 80 81 76 71 64 56 50 42 34 27 23 19 18 16
160 158 154 159 157 156 153 149 145 139 131 124 118 113 110 115 85 50 65 68 73 70 63 57 47 36 28 21 16 14 16 16 14
166 157 158 166 158 160 159 156 152 143 137 130 121 117 117 76 118 300 42 54 61 59 52 44 36 24 15 9 5 5 9 11 12
165 163 166 169 165 166 168 165 160 154 144 138 132 132 109 59 120 290 329 348 22 44 46 36 28 18 15 19 18 13 8 5 4
172 169 171 170 173 173 174 176 174 169 150 111 132 124 91 170 212 261 301 312 341 11 21 18 13 5 5 9 12 6 2 5 1
176 179 177 179 178 180 185 190 185 170 118 275 152 178 203 143 295 291 324 314 310 324 340 344 345 356 351 359 355 3 355 351 349
182 189 186 183 183 188 193 191 201 204 198 204 183 260 201 170 268 307 311 318 307 303 311 321 326 324 321 334 340 345 345 337 342
187 183 183 180 180 189 204 187 216 239 219 205 222 219 40 356 280 302 307 322 325 311 306 301 313 305 307 316 314 322 333 349 360
175 180 180 179 186 189 212 206 204 236 217 231 235 192 226 232 241 295 313 304 318 321 327 302 300 296 307 311 304 295 310 339 359
182 187 189 194 199 204 207 205 211 195 229 222 219 234 225 267 254 289 288 294 310 317 315 307 306 291 295 299 295 281 282 323 345
186 191 193 197 204 213 218 206 210 207 215 227 216 231 238 259 238 246 268 289 276 280 285 291 290 291 281 285 285 269 269 288 312
190 194 193 199 205 203 208 202 215 212 196 218 193 230 236 246 236 242 247 256 268 279 281 283 292 298 276 268 268 272 264 275 295
192 194 196 206 208 210 207 206 220 210 221 222 223 234 227 245 250 255 262 272 283 292 295 297 298 298 286 262 261 268 264 274 289
194 197 199 204 214 216 217 221 215 224 201 233 229 253 234 243 246 256 262 265 297 300 308 301 298 289 291 244 258 263 270 276 286
208 205 203 207 212 207 207 218 222 221 223 230 224 221 226 231 245 256 277 286 294 299 305 297 294 295 286 246 263 273 266 274 284
205 213 213 217 223 224 224 215 220 226 229 226 210 200 207 192 247 270 297 304 288 296 296 292 290 294 269 266 267 267 270 271 278
220 226 222 232 236 237 239 243 234 228 222 217 217 219 218 206 202 241 270 287 293 297 294 294 286 277 274 260 257 262 267 266 276
220 232 233 242 251 259 261 249 243 229 228 246 227 210 220 208 242 242 252 272 274 284 296 289 281 285 280 276 269 266 267 270 275
Height
1535 1538 1541 1543 1544 1546 1548 1549 1551 1552 1553 1555 1556 1557 1557 1556 1557 1557 1557 1557 1557 1557 1557 1557 1557 1557 1557 1556 1556 1555 1554 1554 1553
1535 1538 1540 1543 1545 1547 1549 1551 1552 1554 1555 1556 1557 1558 1559 1559 1558 1558 1559 1559 1559 1559 1558 1558 1558 1558 1558 1557 1557 1556 1555 1554 1554
1534 1537 1540 1544 1546 1548 1550 1553 1554 1555 1556 1557 1558 1560 1560 1561 1560 1560 1560 1560 1560 1560 1560 1560 1560 1559 1559 1558 1558 1557 1556 1556 1555
1535 1538 1542 1544 1546 1549 1551 1553 1555 1556 1557 1558 1559 1560 1561 1562 1562 1561 1562 1561 1561 1561 1561 1561 1560 1560 1560 1559 1559 1558 1557 1556 1555
1535 1539 1543 1545 1547 1549 1552 1554 1556 1557 1558 1559 1560 1561 1562 1562 1564 1563 1562 1562 1562 1562 1562 1561 1561 1561 1560 1560 1559 1558 1557 1556 1555
1535 1538 1543 1546 1547 1550 1552 1554 1556 1558 1559 1560 1561 1561 1562 1563 1564 1563 1564 1563 1563 1562 1562 1562 1561 1561 1560 1559 1558 1558 1557 1556 1556
1534 1538 1541 1544 1547 1549 1552 1555 1556 1558 1559 1560 1561 1562 1561 1563 1563 1564 1564 1563 1563 1563 1562 1562 1561 1561 1560 1559 1558 1558 1557 1556 1555
1532 1536 1540 1542 1545 1549 1551 1554 1556 1557 1558 1560 1561 1561 1562 1563 1563 1563 1564 1563 1563 1562 1561 1560 1560 1559 1559 1559 1558 1557 1556 1556 1554
1530 1535 1538 1542 1545 1548 1550 1553 1555 1556 1558 1559 1561 1561 1562 1562 1563 1563 1563 1563 1562 1561 1560 1561 1560 1559 1558 1558 1556 1555 1554 1554 1552
1530 1534 1538 1542 1545 1546 1549 1551 1554 1555 1557 1558 1560 1560 1561 1562 1563 1563 1563 1563 1562 1561 1560 1559 1558 1557 1556 1556 1556 1555 1554 1553 1552
1530 1532 1536 1540 1543 1546 1548 1551 1552 1554 1556 1557 1559 1560 1561 1562 1563 1562 1562 1562 1561 1560 1559 1558 1557 1556 1555 1555 1553 1553 1552 1551 1551
1528 1531 1535 1538 1541 1544 1547 1549 1551 1553 1555 1557 1558 1559 1559 1561 1561 1562 1561 1561 1560 1559 1558 1556 1555 1554 1553 1552 1552 1551 1551 1550 1550
1526 1529 1533 1537 1540 1542 1544 1546 1548 1550 1553 1555 1557 1557 1558 1559 1559 1560 1560 1560 1558 1556 1555 1554 1552 1551 1551 1550 1549 1550 1550 1549 1548
1525 1528 1531 1535 1538 1540 1543 1544 1547 1547 1549 1552 1554 1555 1557 1557 1557 1557 1557 1556 1555 1554 1552 1549 1548 1547 1546 1547 1547 1548 1548 1546 1546
1524 1527 1529 1533 1536 1538 1540 1542 1544 1547 1550 1551 1551 1553 1553 1554 1554 1554 1554 1553 1552 1551 1549 1547 1546 1545 1544 1545 1545 1545 1546 1545 1545
1521 1525 1527 1530 1534 1536 1537 1540 1542 1544 1545 1549 1548 1550 1551 1551 1551 1551 1550 1550 1549 1548 1548 1545 1544 1543 1542 1542 1543 1543 1543 1541 1542
1519 1522 1525 1527 1531 1533 1534 1537 1539 1540 1543 1546 1546 1547 1548 1547 1547 1548 1547 1548 1547 1546 1545 1544 1542 1539 1540 1540 1541 1542 1541 1540 1539
1517 1519 1522 1525 1527 1530 1532 1533 1534 1537 1540 1543 1544 1544 1544 1544 1544 1544 1545 1546 1545 1543 1542 1542 1541 1538 1538 1538 1538 1537 1537 1539 1536
1513 1517 1518 1521 1523 1523 1526 1528 1529 1533 1533 1539 1540 1540 1541 1540 1543 1541 1540 1542 1542 1539 1538 1537 1536 1535 1534 1533 1533 1534 1535 1533 1533
1510 1514 1517 1519 1519 1519 1520 1521 1522 1525 1528 1531 1537 1534 1537 1537 1537 1538 1538 1537 1537 1536 1535 1533 1532 1531 1531 1531 1531 1533 1532 1530 1529